Find Starlink 30562

NORAD ID: 58033 Int'l Des: 2023-156 Owner: SPXS Country: US Constellation: starlink operational
LEOCIRCULAR

リアルタイム位置

3D地球を読み込み中...

Starlink 30562について

説明を読み込み中...

次回通過

Passes for default location (London). Set your location on the main map for personalized predictions.

高度履歴

Loading altitude history...

軌道要素

1 58033U 23156F 26124.38238693 .00000348 00000-0 23874-4 0 9996
2 58033 53.1610 269.2059 0001181 97.2801 262.8334 15.30186807143564
Epoch: May 4, 2026 • Age: 37 hours

現在のステータス

高度 494.0 km
速度 7.62 km/s
衛星直下点 -52.03°S, 44.51°W
打ち上げ日 Oct 9, 2023
運用期間 2.5 years
タイプ internet

技術仕様

分類 Payload
質量 730.00 kg
乾燥質量 700.00 kg
総質量 730.00 kg
長さ 0.30 m
直径 4.10 m
スパン 29.00 m
形状 Box + pan
製造者 SPXS
バスタイプ Starlink V2M
フェーズステータス In Orbit
所有者/国 SPXS/US

Most Searched